| time (UTC) | temp F | wind direction | speed MPH | gust MPH | rain 1hr in | rain 24hr in | rain mn in | humidity % | barometer mb |
| 20260507232219 | 53 | 304 | 0.0 | 1.0 | 0.00 | 0.07 | 0.07 | 93 | 1011.8 |
| 20260507231716 | 53 | 255 | 1.0 | 1.0 | 0.00 | 0.07 | 0.07 | 93 | 1011.9 |
| 20260507231213 | 53 | 257 | 0.0 | 1.0 | 0.00 | 0.07 | 0.07 | 92 | 1011.6 |
| 20260507230709 | 53 | 246 | 0.0 | 1.0 | 0.00 | 0.07 | 0.07 | 91 | 1011.8 |
| 20260507230207 | 53 | 292 | 0.0 | 2.0 | 0.00 | 0.07 | 0.07 | 91 | 1011.7 |
| 20260507225706 | 53 | 110 | 0.0 | 0.0 | 0.00 | 0.07 | 0.07 | 90 | 1011.6 |
| 20260507225203 | 53 | 224 | 0.0 | 1.0 | 0.00 | 0.07 | 0.07 | 89 | 1011.6 |
| 20260507224659 | 53 | 226 | 1.0 | 2.0 | 0.00 | 0.07 | 0.07 | 90 | 1011.9 |
| 20260507224155 | 53 | 230 | 1.0 | 1.0 | 0.00 | 0.07 | 0.07 | 92 | 1011.7 |
| 20260507223651 | 53 | 217 | 0.0 | 2.0 | 0.00 | 0.07 | 0.07 | 92 | 1011.8 |
| 20260507223148 | 53 | 243 | 1.0 | 3.0 | 0.00 | 0.07 | 0.07 | 92 | 1011.6 |
| 20260507222646 | 53 | 283 | 0.0 | 2.0 | 0.00 | 0.07 | 0.07 | 92 | 1011.8 |
| 20260507222142 | 53 | 299 | 0.0 | 2.0 | 0.00 | 0.07 | 0.07 | 92 | 1011.7 |
| 20260507221638 | 53 | 102 | 1.0 | 1.0 | 0.00 | 0.07 | 0.07 | 92 | 1011.7 |
| 20260507221134 | 53 | 247 | 1.0 | 2.0 | 0.00 | 0.07 | 0.07 | 91 | 1011.8 |
| 20260507220632 | 53 | 350 | 1.0 | 2.0 | 0.00 | 0.07 | 0.07 | 91 | 1011.5 |
| 20260507220130 | 53 | 287 | 0.0 | 1.0 | 0.00 | 0.07 | 0.07 | 92 | 1011.4 |
| 20260507215625 | 53 | 67 | 0.0 | 1.0 | 0.00 | 0.07 | 0.07 | 93 | 1011.6 |
| 20260507215123 | 53 | 283 | 1.0 | 1.0 | 0.00 | 0.07 | 0.07 | 93 | 1011.6 |
| 20260507214620 | 52 | 6 | 0.0 | 2.0 | 0.00 | 0.07 | 0.07 | 92 | 1011.6 |
| 20260507214117 | 53 | 347 | 0.0 | 2.0 | 0.00 | 0.07 | 0.07 | 92 | 1011.7 |
| 20260507213613 | 53 | 235 | 0.0 | 1.0 | 0.00 | 0.07 | 0.07 | 93 | 1011.7 |
| 20260507213110 | 53 | 304 | 0.0 | 2.0 | 0.00 | 0.07 | 0.07 | 93 | 1011.6 |
| 20260507212606 | 53 | 2 | 1.0 | 2.0 | 0.00 | 0.07 | 0.07 | 94 | 1011.3 |
| 20260507212103 | 53 | 212 | 2.0 | 3.0 | 0.00 | 0.07 | 0.07 | 93 | 1011.4 |
| 20260507211600 | 53 | 172 | 1.0 | 2.0 | 0.00 | 0.07 | 0.07 | 93 | 1011.3 |
| 20260507211055 | 53 | 256 | 1.0 | 2.0 | 0.00 | 0.07 | 0.07 | 94 | 1011.4 |
| 20260507210553 | 53 | 299 | 0.0 | 3.0 | 0.00 | 0.07 | 0.07 | 95 | 1011.3 |
| 20260507210050 | 53 | 111 | 2.0 | 3.0 | 0.00 | 0.07 | 0.07 | 95 | 1011.1 |
| 20260507205546 | 53 | 255 | 1.0 | 3.0 | 0.00 | 0.07 | 0.07 | 95 | 1011.7 |
| 20260507205043 | 53 | 282 | 0.0 | 2.0 | 0.00 | 0.07 | 0.07 | 94 | 1011.4 |
| 20260507204539 | 53 | 117 | 1.0 | 1.0 | 0.05 | 0.07 | 0.07 | 93 | 1011.6 |
| 20260507204037 | 54 | 132 | 1.0 | 1.0 | 0.07 | 0.07 | 0.07 | 93 | 1011.8 |
| 20260507203535 | 54 | 77 | 0.0 | 2.0 | 0.07 | 0.06 | 0.06 | 91 | 1012.0 |
| 20260507203032 | 54 | 271 | 1.0 | 1.0 | 0.07 | 0.06 | 0.06 | 91 | 1012.0 |
| 20260507202527 | 54 | 300 | 0.0 | 2.0 | 0.02 | 0.05 | 0.05 | 90 | 1012.0 |
| 20260507202024 | 54 | 301 | 0.0 | 1.0 | 0.02 | 0.05 | 0.05 | 90 | 1011.6 |
| 20260507201519 | 54 | 28 | 0.0 | 1.0 | 0.02 | 0.05 | 0.05 | 90 | 1011.6 |
| 20260507201016 | 54 | 172 | 0.0 | 2.0 | 0.05 | 0.04 | 0.04 | 89 | 1011.7 |
| 20260507200511 | 54 | 230 | 0.0 | 2.0 | 0.05 | 0.04 | 0.04 | 88 | 1011.5 |
| 20260507200008 | 55 | 54 | 0.0 | 2.0 | 0.05 | 0.04 | 0.04 | 89 | 1011.6 |
| 20260507195505 | 55 | 119 | 0.0 | 2.0 | 0.02 | 0.03 | 0.03 | 86 | 1012.1 |
| 20260507195003 | 55 | 215 | 1.0 | 2.0 | 0.00 | 0.03 | 0.03 | 83 | 1011.8 |
| 20260507194459 | 55 | 342 | 1.0 | 2.0 | 0.00 | 0.03 | 0.03 | 84 | 1012.0 |
| 20260507193954 | 55 | 332 | 1.0 | 2.0 | 0.00 | 0.03 | 0.03 | 83 | 1012.0 |
| 20260507193452 | 55 | 69 | 0.0 | 3.0 | 0.00 | 0.03 | 0.03 | 81 | 1011.8 |
| 20260507192949 | 55 | 100 | 1.0 | 2.0 | 0.00 | 0.03 | 0.03 | 82 | 1011.9 |
| 20260507192444 | 56 | 126 | 1.0 | 3.0 | 0.00 | 0.03 | 0.03 | 81 | 1012.2 |
| 20260507191942 | 56 | 294 | 0.0 | 2.0 | 0.00 | 0.03 | 0.03 | 81 | 1012.2 |
| 20260507191438 | 55 | 301 | 2.0 | 2.0 | 0.00 | 0.03 | 0.03 | 79 | 1012.4 |
| 20260507190934 | 55 | 205 | 0.0 | 2.0 | 0.00 | 0.03 | 0.03 | 78 | 1012.1 |
| 20260507190432 | 56 | 159 | 0.0 | 2.0 | 0.00 | 0.03 | 0.03 | 79 | 1012.3 |
| 20260507185931 | 55 | 309 | 0.0 | 2.0 | 0.00 | 0.03 | 0.03 | 79 | 1012.2 |
| 20260507185428 | 56 | 97 | 1.0 | 3.0 | 0.00 | 0.03 | 0.03 | 79 | 1012.1 |
| 20260507184924 | 56 | 162 | 0.0 | 3.0 | 0.00 | 0.03 | 0.03 | 78 | 1012.1 |
| 20260507184422 | 56 | 102 | 2.0 | 3.0 | 0.00 | 0.03 | 0.03 | 80 | 1012.2 |
| 20260507183920 | 56 | 98 | 1.0 | 3.0 | 0.00 | 0.03 | 0.03 | 78 | 1012.2 |
| 20260507183416 | 56 | 127 | 0.0 | 2.0 | 0.00 | 0.03 | 0.03 | 79 | 1012.1 |
| 20260507182914 | 56 | 321 | 0.0 | 1.0 | 0.00 | 0.03 | 0.03 | 79 | 1012.5 |
| 20260507182409 | 56 | 86 | 3.0 | 4.0 | 0.00 | 0.03 | 0.03 | 79 | 1012.4 |
| 20260507181906 | 56 | 5 | 2.0 | 3.0 | 0.00 | 0.03 | 0.03 | 79 | 1012.4 |
| 20260507181402 | 56 | 309 | 2.0 | 4.0 | 0.00 | 0.03 | 0.03 | 79 | 1012.4 |
| 20260507180859 | 56 | 312 | 1.0 | 2.0 | 0.00 | 0.03 | 0.03 | 80 | 1012.1 |
| 20260507180355 | 56 | 44 | 2.0 | 3.0 | 0.00 | 0.03 | 0.03 | 80 | 1012.3 |
| 20260507175852 | 55 | 122 | 1.0 | 3.0 | 0.00 | 0.03 | 0.03 | 80 | 1012.4 |
| 20260507175348 | 55 | 117 | 2.0 | 3.0 | 0.00 | 0.03 | 0.03 | 80 | 1012.6 |
| 20260507174846 | 56 | 302 | 1.0 | 4.0 | 0.00 | 0.03 | 0.03 | 81 | 1012.4 |
| 20260507174343 | 56 | 103 | 0.0 | 2.0 | 0.00 | 0.03 | 0.03 | 81 | 1012.5 |
| 20260507173841 | 56 | 127 | 2.0 | 3.0 | 0.00 | 0.03 | 0.03 | 80 | 1012.5 |
| 20260507173338 | 56 | 94 | 2.0 | 4.0 | 0.00 | 0.03 | 0.03 | 79 | 1012.6 |
| 20260507172834 | 57 | 136 | 1.0 | 2.0 | 0.00 | 0.03 | 0.03 | 81 | 1012.6 |
| 20260507172331 | 56 | 317 | 1.0 | 3.0 | 0.00 | 0.03 | 0.03 | 80 | 1012.5 |
| 20260507171827 | 56 | 139 | 1.0 | 1.0 | 0.00 | 0.03 | 0.03 | 80 | 1012.7 |
| 20260507171324 | 56 | 170 | 1.0 | 2.0 | 0.00 | 0.03 | 0.03 | 80 | 1012.9 |
| 20260507170821 | 56 | 11 | 1.0 | 3.0 | 0.00 | 0.03 | 0.03 | 80 | 1013.0 |
| 20260507170317 | 56 | 7 | 0.0 | 3.0 | 0.00 | 0.03 | 0.03 | 80 | 1013.0 |
| 20260507165813 | 56 | 129 | 0.0 | 2.0 | 0.00 | 0.03 | 0.03 | 83 | 1013.1 |
| 20260507165309 | 55 | 358 | 1.0 | 4.0 | 0.00 | 0.03 | 0.03 | 83 | 1013.4 |
| 20260507164805 | 55 | 130 | 0.0 | 4.0 | 0.00 | 0.03 | 0.03 | 85 | 1013.3 |
| 20260507164303 | 55 | 131 | 1.0 | 2.0 | 0.00 | 0.03 | 0.03 | 87 | 1013.1 |
| 20260507163759 | 55 | 51 | 1.0 | 3.0 | 0.00 | 0.03 | 0.03 | 86 | 1013.2 |
| 20260507163257 | 55 | 303 | 2.0 | 4.0 | 0.00 | 0.03 | 0.03 | 88 | 1013.2 |
| 20260507162753 | 55 | 289 | 3.0 | 6.0 | 0.00 | 0.03 | 0.03 | 87 | 1013.7 |
| 20260507162249 | 55 | 326 | 0.0 | 2.0 | 0.00 | 0.03 | 0.03 | 88 | 1013.4 |
| 20260507161747 | 55 | 315 | 0.0 | 5.0 | 0.00 | 0.03 | 0.03 | 87 | 1013.4 |
| 20260507161243 | 55 | 272 | 2.0 | 2.0 | 0.00 | 0.03 | 0.03 | 89 | 1013.4 |
| 20260507160738 | 55 | 135 | 1.0 | 4.0 | 0.00 | 0.03 | 0.03 | 90 | 1013.6 |
| 20260507160235 | 55 | 351 | 2.0 | 3.0 | 0.00 | 0.03 | 0.03 | 92 | 1013.5 |
| 20260507155731 | 55 | 336 | 2.0 | 3.0 | 0.00 | 0.03 | 0.03 | 93 | 1013.7 |
| 20260507155227 | 55 | 313 | 3.0 | 4.0 | 0.00 | 0.03 | 0.03 | 93 | 1013.5 |
| 20260507154724 | 55 | 281 | 0.0 | 2.0 | 0.02 | 0.03 | 0.03 | 93 | 1013.5 |
| 20260507154222 | 55 | 145 | 0.0 | 2.0 | 0.02 | 0.03 | 0.03 | 92 | 1013.5 |
| 20260507153718 | 55 | 326 | 0.0 | 2.0 | 0.00 | 0.02 | 0.02 | 91 | 1013.7 |
| 20260507153215 | 55 | 301 | 2.0 | 4.0 | 0.00 | 0.02 | 0.02 | 89 | 1013.7 |
| 20260507152711 | 55 | 150 | 0.0 | 2.0 | 0.00 | 0.02 | 0.02 | 88 | 1013.7 |
| 20260507152207 | 55 | 238 | 2.0 | 3.0 | 0.00 | 0.02 | 0.02 | 87 | 1013.6 |
| 20260507151703 | 56 | 109 | 2.0 | 2.0 | 0.00 | 0.02 | 0.02 | 86 | 1013.5 |
| 20260507151200 | 56 | 319 | 0.0 | 3.0 | 0.00 | 0.02 | 0.02 | 86 | 1013.4 |
| 20260507150657 | 56 | 304 | 2.0 | 3.0 | 0.00 | 0.02 | 0.02 | 85 | 1013.5 |
| 20260507150154 | 56 | 339 | 2.0 | 2.0 | 0.00 | 0.02 | 0.02 | 85 | 1013.5 |
| 20260507145649 | 56 | 26 | 2.0 | 3.0 | 0.00 | 0.02 | 0.02 | 84 | 1013.5 |
| 20260507145147 | 56 | 114 | 0.0 | 3.0 | 0.00 | 0.02 | 0.02 | 84 | 1013.6 |
| 20260507144643 | 56 | 0 | 0.0 | 3.0 | 0.00 | 0.02 | 0.02 | 84 | 1013.3 |
| 20260507144142 | 56 | 292 | 0.0 | 4.0 | 0.00 | 0.02 | 0.02 | 83 | 1013.1 |
| 20260507143638 | 56 | 278 | 2.0 | 5.0 | 0.00 | 0.02 | 0.02 | 84 | 1013.1 |
| 20260507143135 | 56 | 233 | 0.0 | 3.0 | 0.00 | 0.02 | 0.02 | 84 | 1013.3 |
| 20260507142630 | 56 | 272 | 0.0 | 2.0 | 0.00 | 0.02 | 0.02 | 85 | 1013.2 |
| 20260507142128 | 56 | 38 | 3.0 | 4.0 | 0.00 | 0.02 | 0.02 | 85 | 1013.4 |
| 20260507141624 | 56 | 277 | 0.0 | 4.0 | 0.00 | 0.02 | 0.02 | 86 | 1013.7 |
| 20260507141121 | 56 | 292 | 0.0 | 4.0 | 0.00 | 0.02 | 0.02 | 86 | 1013.5 |
| 20260507140617 | 56 | 42 | 1.0 | 3.0 | 0.00 | 0.02 | 0.02 | 87 | 1013.7 |
| 20260507140115 | 56 | 296 | 3.0 | 4.0 | 0.00 | 0.02 | 0.02 | 87 | 1013.4 |
| 20260507135612 | 57 | 4 | 2.0 | 2.0 | 0.00 | 0.02 | 0.02 | 88 | 1013.7 |
| 20260507135109 | 56 | 313 | 3.0 | 3.0 | 0.00 | 0.02 | 0.02 | 88 | 1013.7 |
| 20260507134605 | 56 | 280 | 2.0 | 5.0 | 0.00 | 0.02 | 0.02 | 87 | 1013.5 |
| 20260507134101 | 56 | 357 | 2.0 | 5.0 | 0.02 | 0.02 | 0.02 | 89 | 1013.6 |
| 20260507133557 | 57 | 78 | 0.0 | 2.0 | 0.02 | 0.02 | 0.02 | 90 | 1013.5 |
| 20260507133055 | 57 | 309 | 0.0 | 2.0 | 0.00 | 0.02 | 0.02 | 90 | 1013.5 |
| 20260507132552 | 57 | 235 | 0.0 | 2.0 | 0.00 | 0.02 | 0.02 | 90 | 1013.2 |
| 20260507132048 | 57 | 15 | 1.0 | 2.0 | 0.00 | 0.02 | 0.02 | 88 | 1013.2 |
| 20260507131545 | 57 | 330 | 2.0 | 3.0 | 0.00 | 0.02 | 0.02 | 88 | 1013.4 |
| 20260507131042 | 57 | 320 | 2.0 | 3.0 | 0.00 | 0.02 | 0.02 | 88 | 1013.4 |
| 20260507130539 | 57 | 296 | 2.0 | 4.0 | 0.00 | 0.02 | 0.02 | 88 | 1013.3 |
| 20260507130038 | 57 | 316 | 2.0 | 6.0 | 0.00 | 0.02 | 0.02 | 88 | 1013.3 |
| 20260507125536 | 57 | 39 | 1.0 | 2.0 | 0.00 | 0.02 | 0.02 | 89 | 1013.1 |
| 20260507125033 | 57 | 75 | 1.0 | 2.0 | 0.00 | 0.02 | 0.02 | 88 | 1013.2 |
| 20260507124529 | 57 | 315 | 1.0 | 2.0 | 0.00 | 0.02 | 0.02 | 89 | 1013.1 |
| 20260507124027 | 57 | 317 | 2.0 | 3.0 | 0.00 | 0.02 | 0.02 | 89 | 1013.3 |
| 20260507123525 | 57 | 277 | 3.0 | 3.0 | 0.00 | 0.02 | 0.02 | 89 | 1013.1 |
| 20260507123021 | 57 | 341 | 1.0 | 3.0 | 0.00 | 0.02 | 0.02 | 89 | 1013.3 |
| 20260507122516 | 56 | 327 | 1.0 | 4.0 | 0.00 | 0.02 | 0.02 | 89 | 1013.2 |
| 20260507122013 | 56 | 38 | 2.0 | 2.0 | 0.00 | 0.02 | 0.02 | 89 | 1013.1 |
| 20260507121508 | 56 | 13 | 0.0 | 2.0 | 0.00 | 0.02 | 0.02 | 89 | 1013.2 |
| 20260507121004 | 56 | 264 | 1.0 | 4.0 | 0.00 | 0.02 | 0.02 | 89 | 1013.2 |
| 20260507120501 | 56 | 337 | 3.0 | 3.0 | 0.00 | 0.02 | 0.02 | 89 | 1012.9 |
| 20260507115957 | 56 | 67 | 0.0 | 2.0 | 0.00 | 0.02 | 0.02 | 89 | 1013.0 |
| 20260507115454 | 56 | 248 | 0.0 | 4.0 | 0.00 | 0.02 | 0.02 | 89 | 1013.3 |
| 20260507114949 | 56 | 318 | 3.0 | 5.0 | 0.00 | 0.02 | 0.02 | 88 | 1013.5 |
| 20260507114446 | 56 | 281 | 2.0 | 4.0 | 0.00 | 0.02 | 0.02 | 88 | 1013.3 |
| 20260507113943 | 56 | 304 | 0.0 | 2.0 | 0.00 | 0.02 | 0.02 | 88 | 1013.3 |
| 20260507113440 | 56 | 228 | 0.0 | 3.0 | 0.00 | 0.02 | 0.02 | 88 | 1013.4 |
| 20260507112938 | 56 | 296 | 0.0 | 3.0 | 0.00 | 0.02 | 0.02 | 88 | 1012.9 |
| 20260507112435 | 56 | 334 | 4.0 | 5.0 | 0.00 | 0.02 | 0.02 | 88 | 1013.1 |
| 20260507111932 | 56 | 72 | 0.0 | 2.0 | 0.00 | 0.02 | 0.02 | 87 | 1012.6 |
| 20260507111429 | 56 | 300 | 2.0 | 4.0 | 0.00 | 0.02 | 0.02 | 87 | 1012.6 |
| 20260507110925 | 56 | 184 | 0.0 | 3.0 | 0.00 | 0.02 | 0.02 | 87 | 1012.8 |
| 20260507110421 | 56 | 311 | 0.0 | 3.0 | 0.00 | 0.02 | 0.02 | 87 | 1012.9 |
| 20260507105918 | 56 | 25 | 2.0 | 2.0 | 0.00 | 0.02 | 0.02 | 87 | 1012.9 |
| 20260507105415 | 56 | 332 | 3.0 | 3.0 | 0.00 | 0.02 | 0.02 | 86 | 1012.9 |
| 20260507104912 | 56 | 275 | 0.0 | 4.0 | 0.00 | 0.02 | 0.02 | 85 | 1012.5 |
| 20260507104409 | 56 | 11 | 3.0 | 4.0 | 0.00 | 0.02 | 0.02 | 84 | 1012.6 |
| 20260507103904 | 56 | 256 | 0.0 | 3.0 | 0.00 | 0.02 | 0.02 | 85 | 1012.4 |
| 20260507103402 | 56 | 348 | 0.0 | 4.0 | 0.00 | 0.02 | 0.02 | 84 | 1012.5 |
| 20260507102857 | 56 | 334 | 2.0 | 4.0 | 0.00 | 0.02 | 0.02 | 84 | 1012.5 |
| 20260507102354 | 56 | 331 | 2.0 | 4.0 | 0.00 | 0.02 | 0.02 | 85 | 1012.1 |
| 20260507101850 | 56 | 304 | 2.0 | 3.0 | 0.00 | 0.02 | 0.02 | 85 | 1011.7 |
| 20260507101345 | 56 | 290 | 2.0 | 3.0 | 0.00 | 0.02 | 0.02 | 85 | 1011.9 |
| 20260507100842 | 56 | 334 | 2.0 | 4.0 | 0.00 | 0.02 | 0.02 | 86 | 1012.0 |
| 20260507100340 | 56 | 7 | 1.0 | 2.0 | 0.00 | 0.02 | 0.02 | 87 | 1012.2 |
| 20260507095838 | 56 | 20 | 1.0 | 4.0 | 0.00 | 0.02 | 0.02 | 87 | 1012.4 |
| 20260507095334 | 57 | 27 | 2.0 | 2.0 | 0.00 | 0.02 | 0.02 | 88 | 1012.4 |
| 20260507094832 | 57 | 230 | 1.0 | 3.0 | 0.00 | 0.02 | 0.02 | 88 | 1012.7 |
| 20260507094328 | 57 | 162 | 0.0 | 3.0 | 0.00 | 0.02 | 0.02 | 88 | 1012.2 |
| 20260507093825 | 57 | 19 | 2.0 | 3.0 | 0.00 | 0.02 | 0.02 | 89 | 1012.6 |
| 20260507093324 | 57 | 304 | 2.0 | 2.0 | 0.00 | 0.02 | 0.02 | 91 | 1012.4 |
| 20260507092821 | 57 | 326 | 1.0 | 3.0 | 0.00 | 0.02 | 0.02 | 91 | 1012.4 |
| 20260507092318 | 57 | 16 | 0.0 | 3.0 | 0.00 | 0.02 | 0.02 | 92 | 1012.4 |
| 20260507091814 | 57 | 116 | 1.0 | 5.0 | 0.00 | 0.02 | 0.02 | 92 | 1011.9 |
| 20260507091310 | 57 | 72 | 2.0 | 2.0 | 0.00 | 0.02 | 0.02 | 94 | 1012.1 |
| 20260507090805 | 57 | 302 | 2.0 | 3.0 | 0.02 | 0.02 | 0.02 | 94 | 1012.1 |
| 20260507090302 | 57 | 345 | 1.0 | 3.0 | 0.00 | 0.02 | 0.02 | 93 | 1012.3 |
| 20260507085759 | 57 | 352 | 1.0 | 6.0 | 0.00 | 0.02 | 0.02 | 93 | 1012.4 |
| 20260507085256 | 58 | 285 | 2.0 | 2.0 | 0.05 | 0.02 | 0.02 | 93 | 1012.0 |
| 20260507084754 | 58 | 7 | 2.0 | 3.0 | 0.02 | 0.01 | 0.01 | 93 | 1012.2 |
| 20260507084249 | 58 | 286 | 1.0 | 4.0 | 0.00 | 0.01 | 0.01 | 93 | 1012.2 |
| 20260507083747 | 59 | 125 | 0.0 | 3.0 | 0.02 | 0.01 | 0.01 | 93 | 1011.8 |
| 20260507083244 | 59 | 3 | 0.0 | 4.0 | 0.02 | 0.01 | 0.01 | 93 | 1012.1 |
| 20260507082740 | 59 | 140 | 2.0 | 4.0 | 0.00 | 0.00 | 0.00 | 93 | 1012.0 |
| 20260507082236 | 59 | 76 | 3.0 | 4.0 | 0.00 | 0.00 | 0.00 | 93 | 1011.9 |
| 20260507081733 | 60 | 126 | 1.0 | 4.0 | 0.00 | 0.00 | 0.00 | 94 | 1012.0 |
| 20260507081229 | 60 | 341 | 1.0 | 3.0 | 0.00 | 0.00 | 0.00 | 95 | 1012.0 |
| 20260507080725 | 61 | 353 | 2.0 | 4.0 | 0.00 | 0.00 | 0.00 | 95 | 1011.8 |
| 20260507080221 | 61 | 8 | 2.0 | 3.0 | 0.00 | 0.00 | 0.00 | 95 | 1011.8 |
| 20260507075717 | 63 | 306 | 3.0 | 4.0 | 0.00 | 0.00 | 0.00 | 96 | 1011.3 |
| 20260507075214 | 64 | 334 | 2.0 | 3.0 | 0.00 | 0.00 | 0.00 | 96 | 1011.1 |
| 20260507074710 | 64 | 321 | 0.0 | 3.0 | 0.00 | 0.00 | 0.00 | 97 | 1010.8 |
| 20260507074209 | 65 | 193 | 0.0 | 3.0 | 0.00 | 0.00 | 0.00 | 97 | 1011.0 |
| 20260507073704 | 65 | 40 | 0.0 | 3.0 | 0.00 | 0.00 | 0.00 | 96 | 1010.9 |
| 20260507073201 | 65 | 44 | 0.0 | 2.0 | 0.00 | 0.00 | 0.00 | 96 | 1010.9 |
| 20260507072659 | 65 | 324 | 0.0 | 2.0 | 0.00 | 0.00 | 0.00 | 96 | 1010.9 |
| 20260507072156 | 66 | 315 | 1.0 | 2.0 | 0.00 | 0.00 | 0.00 | 96 | 1011.0 |
| 20260507071654 | 66 | 89 | 0.0 | 2.0 | 0.00 | 0.00 | 0.00 | 96 | 1011.1 |
| 20260507071149 | 66 | 354 | 0.0 | 0.0 | 0.00 | 0.00 | 0.00 | 96 | 1011.0 |
| 20260507070647 | 66 | 287 | 0.0 | 1.0 | 0.00 | 0.00 | 0.00 | 96 | 1011.0 |
| 20260507070143 | 66 | 339 | 0.0 | 2.0 | 0.00 | 0.00 | 0.00 | 96 | 1011.1 |
| 20260507065640 | 66 | 315 | 0.0 | 2.0 | 0.00 | 0.00 | 0.00 | 95 | 1011.0 |
| 20260507065137 | 66 | 7 | 0.0 | 2.0 | 0.00 | 0.00 | 0.00 | 95 | 1010.6 |
| 20260507064634 | 66 | 321 | 0.0 | 1.0 | 0.00 | 0.00 | 0.00 | 94 | 1010.6 |
| 20260507064133 | 66 | 305 | 1.0 | 1.0 | 0.00 | 0.00 | 0.00 | 94 | 1010.4 |
| 20260507063630 | 67 | 335 | 0.0 | 1.0 | 0.02 | 0.00 | 0.00 | 93 | 1010.4 |
| 20260507063127 | 67 | 230 | 0.0 | 1.0 | 0.02 | 0.00 | 0.00 | 93 | 1010.4 |
| 20260507062624 | 67 | 326 | 0.0 | 1.0 | 0.00 | 0.00 | 0.00 | 92 | 1010.3 |
| 20260507062121 | 67 | 317 | 0.0 | 1.0 | 0.00 | 0.00 | 0.00 | 91 | 1010.2 |
| 20260507061619 | 67 | 235 | 0.0 | 0.0 | 0.00 | 0.00 | 0.00 | 91 | 1009.9 |
| 20260507061117 | 67 | 193 | 0.0 | 2.0 | 0.00 | 0.00 | 0.00 | 91 | 1009.8 |
| 20260507060615 | 67 | 314 | 0.0 | 1.0 | 0.00 | 0.00 | 0.00 | 91 | 1009.8 |
| 20260507060111 | 67 | 0 | 0.0 | 1.0 | 0.00 | 0.00 | 0.00 | 91 | 1009.8 |
| 20260507055606 | 67 | 209 | 0.0 | 2.0 | 0.00 | 0.00 | 0.00 | 92 | 1010.1 |
| 20260507055103 | 67 | 211 | 0.0 | 1.0 | 0.00 | 0.00 | 0.00 | 92 | 1010.2 |
| 20260507054558 | 68 | 169 | 1.0 | 2.0 | 0.00 | 0.00 | 0.00 | 90 | 1010.2 |
| 20260507054056 | 68 | 233 | 0.0 | 2.0 | 0.00 | 0.00 | 0.00 | 89 | 1009.8 |
| 20260507053554 | 68 | 235 | 0.0 | 2.0 | 0.00 | 0.00 | 0.00 | 89 | 1009.9 |
| 20260507053052 | 68 | 256 | 0.0 | 2.0 | 0.00 | 0.00 | 0.00 | 89 | 1010.3 |
| 20260507052549 | 68 | 200 | 0.0 | 2.0 | 0.00 | 0.00 | 0.00 | 89 | 1010.0 |
| 20260507052046 | 68 | 213 | 0.0 | 2.0 | 0.00 | 0.00 | 0.00 | 88 | 1010.3 |
| 20260507051544 | 68 | 230 | 0.0 | 1.0 | 0.00 | 0.00 | 0.00 | 88 | 1010.4 |
| 20260507051040 | 68 | 180 | 0.0 | 2.0 | 0.00 | 0.00 | 0.00 | 88 | 1010.4 |
| 20260507050537 | 68 | 224 | 2.0 | 2.0 | 0.00 | 0.00 | 0.00 | 88 | 1010.9 |
| 20260507050033 | 68 | 238 | 2.0 | 4.0 | 0.00 | 0.00 | 0.00 | 88 | 1010.9 |
| 20260507045530 | 68 | 269 | 0.0 | 3.0 | 0.00 | 0.00 | 0.00 | 88 | 1011.0 |
| 20260507045027 | 68 | 286 | 0.0 | 2.0 | 0.00 | 0.00 | 0.00 | 89 | 1011.1 |
| 20260507044524 | 68 | 267 | 0.0 | 2.0 | 0.00 | 0.00 | 0.00 | 89 | 1011.1 |
| 20260507044021 | 68 | 200 | 2.0 | 2.0 | 0.00 | 0.00 | 0.00 | 89 | 1011.2 |
| 20260507043517 | 68 | 242 | 0.0 | 2.0 | 0.00 | 0.00 | 0.00 | 89 | 1011.1 |
| 20260507043014 | 68 | 217 | 0.0 | 2.0 | 0.00 | 0.00 | 0.00 | 89 | 1011.5 |
| 20260507042510 | 68 | 277 | 0.0 | 2.0 | 0.00 | 0.00 | 0.00 | 89 | 1011.6 |
| 20260507042006 | 68 | 122 | 0.0 | 2.0 | 0.00 | 0.00 | 0.00 | 89 | 1011.5 |
| 20260507041503 | 68 | 214 | 0.0 | 2.0 | 0.00 | 0.00 | 0.00 | 89 | 1011.3 |
| 20260507041000 | 68 | 255 | 0.0 | 2.0 | 0.00 | 0.00 | 0.00 | 89 | 1010.9 |
| 20260507040455 | 68 | 309 | 0.0 | 1.0 | 0.00 | 0.00 | 0.00 | 89 | 1010.7 |
| 20260507035951 | 68 | 269 | 0.0 | 2.0 | 0.00 | 0.09 | 0.09 | 88 | 1011.3 |
| 20260507035448 | 68 | 242 | 0.0 | 2.0 | 0.00 | 0.09 | 0.09 | 88 | 1011.1 |
| 20260507034945 | 68 | 269 | 0.0 | 2.0 | 0.00 | 0.09 | 0.09 | 88 | 1011.1 |
| 20260507034442 | 68 | 155 | 0.0 | 4.0 | 0.00 | 0.09 | 0.09 | 88 | 1011.5 |
| 20260507033940 | 68 | 205 | 0.0 | 3.0 | 0.00 | 0.09 | 0.09 | 88 | 1011.6 |
| 20260507033438 | 68 | 52 | 0.0 | 2.0 | 0.00 | 0.09 | 0.09 | 88 | 1011.5 |
| 20260507032934 | 68 | 244 | 1.0 | 2.0 | 0.00 | 0.09 | 0.09 | 88 | 1011.1 |
| 20260507032431 | 68 | 254 | 1.0 | 2.0 | 0.00 | 0.09 | 0.09 | 88 | 1011.0 |
| 20260507031927 | 68 | 0 | 0.0 | 3.0 | 0.00 | 0.09 | 0.09 | 87 | 1011.1 |
| 20260507031426 | 68 | 250 | 1.0 | 2.0 | 0.00 | 0.09 | 0.09 | 87 | 1010.8 |
| 20260507030921 | 69 | 302 | 0.0 | 4.0 | 0.00 | 0.09 | 0.09 | 87 | 1010.9 |
| 20260507030418 | 69 | 301 | 0.0 | 2.0 | 0.00 | 0.09 | 0.09 | 87 | 1010.9 |
| 20260507025915 | 69 | 264 | 1.0 | 2.0 | 0.00 | 0.09 | 0.09 | 87 | 1010.9 |
| 20260507025412 | 69 | 249 | 2.0 | 2.0 | 0.00 | 0.09 | 0.09 | 87 | 1010.6 |
| 20260507024910 | 69 | 235 | 1.0 | 2.0 | 0.00 | 0.09 | 0.09 | 87 | 1010.4 |
| 20260507024407 | 69 | 231 | 3.0 | 4.0 | 0.00 | 0.09 | 0.09 | 87 | 1010.6 |
| 20260507023903 | 69 | 189 | 0.0 | 3.0 | 0.00 | 0.09 | 0.09 | 87 | 1010.7 |
| 20260507023400 | 68 | 224 | 0.0 | 4.0 | 0.00 | 0.09 | 0.09 | 87 | 1010.7 |
| 20260507022857 | 68 | 206 | 3.0 | 3.0 | 0.00 | 0.09 | 0.09 | 87 | 1011.0 |
| 20260507022354 | 68 | 268 | 0.0 | 3.0 | 0.00 | 0.09 | 0.09 | 87 | 1010.8 |
| 20260507021850 | 68 | 175 | 0.0 | 2.0 | 0.00 | 0.09 | 0.09 | 87 | 1011.1 |
| 20260507021345 | 68 | 224 | 3.0 | 4.0 | 0.00 | 0.09 | 0.09 | 87 | 1010.9 |
| 20260507020843 | 68 | 251 | 2.0 | 2.0 | 0.00 | 0.09 | 0.09 | 87 | 1011.2 |
| 20260507020339 | 68 | 278 | 1.0 | 2.0 | 0.00 | 0.09 | 0.09 | 87 | 1011.2 |
| 20260507015836 | 68 | 306 | 2.0 | 2.0 | 0.00 | 0.09 | 0.09 | 87 | 1011.3 |
| 20260507015335 | 68 | 269 | 0.0 | 2.0 | 0.00 | 0.09 | 0.09 | 87 | 1011.3 |
| 20260507014831 | 68 | 212 | 0.0 | 2.0 | 0.00 | 0.09 | 0.09 | 87 | 1011.5 |
| 20260507014327 | 68 | 231 | 0.0 | 3.0 | 0.00 | 0.09 | 0.09 | 87 | 1011.4 |
| 20260507013824 | 68 | 197 | 1.0 | 2.0 | 0.00 | 0.09 | 0.09 | 87 | 1011.1 |
| 20260507013321 | 68 | 205 | 0.0 | 2.0 | 0.00 | 0.09 | 0.09 | 87 | 1011.5 |
| 20260507012819 | 68 | 203 | 1.0 | 2.0 | 0.00 | 0.09 | 0.09 | 87 | 1011.3 |
| 20260507012314 | 68 | 220 | 0.0 | 2.0 | 0.00 | 0.09 | 0.09 | 86 | 1011.5 |
| 20260507011806 | 68 | 239 | 2.0 | 3.0 | 0.00 | 0.09 | 0.09 | 86 | 1011.2 |
| 20260507011303 | 68 | 269 | 1.0 | 2.0 | 0.00 | 0.09 | 0.09 | 87 | 1011.4 |
| 20260507010802 | 68 | 249 | 0.0 | 1.0 | 0.00 | 0.09 | 0.09 | 87 | 1011.4 |
| 20260507010258 | 68 | 260 | 0.0 | 1.0 | 0.00 | 0.09 | 0.09 | 86 | 1011.3 |
| 20260507005756 | 68 | 247 | 2.0 | 3.0 | 0.00 | 0.09 | 0.09 | 86 | 1010.9 |
| 20260507005252 | 68 | 228 | 0.0 | 2.0 | 0.00 | 0.09 | 0.09 | 86 | 1010.7 |
| 20260507004749 | 68 | 266 | 0.0 | 1.0 | 0.00 | 0.09 | 0.09 | 86 | 1011.1 |
| 20260507004247 | 68 | 221 | 3.0 | 3.0 | 0.00 | 0.09 | 0.09 | 86 | 1011.1 |
| 20260507003743 | 68 | 200 | 1.0 | 3.0 | 0.00 | 0.09 | 0.09 | 85 | 1011.0 |
| 20260507003238 | 69 | 182 | 0.0 | 2.0 | 0.00 | 0.09 | 0.09 | 85 | 1011.3 |
| 20260507002734 | 69 | 230 | 3.0 | 4.0 | 0.00 | 0.09 | 0.09 | 85 | 1011.4 |
| 20260507002230 | 69 | 263 | 3.0 | 3.0 | 0.00 | 0.09 | 0.09 | 85 | 1011.1 |
| 20260507001727 | 69 | 240 | 0.0 | 2.0 | 0.00 | 0.09 | 0.09 | 84 | 1011.3 |
| 20260507001225 | 69 | 194 | 2.0 | 5.0 | 0.00 | 0.09 | 0.09 | 84 | 1011.2 |
| 20260507000721 | 69 | 221 | 2.0 | 2.0 | 0.00 | 0.09 | 0.09 | 84 | 1011.2 |
| 20260507000216 | 69 | 157 | 1.0 | 4.0 | 0.00 | 0.09 | 0.09 | 83 | 1011.3 |
| 20260506235714 | 69 | 283 | 0.0 | 2.0 | 0.00 | 0.09 | 0.09 | 84 | 1011.1 |
| 20260506235209 | 69 | 204 | 1.0 | 2.0 | 0.00 | 0.09 | 0.09 | 83 | 1011.0 |
| 20260506234706 | 69 | 123 | 0.0 | 2.0 | 0.00 | 0.09 | 0.09 | 82 | 1011.2 |
| 20260506234204 | 69 | 208 | 3.0 | 3.0 | 0.00 | 0.09 | 0.09 | 82 | 1010.9 |
| 20260506233701 | 70 | 269 | 0.0 | 2.0 | 0.00 | 0.09 | 0.09 | 82 | 1010.8 |
| 20260506233157 | 70 | 245 | 1.0 | 4.0 | 0.00 | 0.09 | 0.09 | 81 | 1011.1 |
| 20260506232654 | 70 | 151 | 0.0 | 2.0 | 0.00 | 0.09 | 0.09 | 81 | 1010.8 |